(92) Undina
ephemeris date magn radius delta ra dec elong phase
Today3 Jul 202513.13.473 AU3.706 AU11h36m+12°35'68.9°15.9°
Opposition16 May 202611.33.227 AU2.228 AU15h42m-08°58'169.6°3.2°
(92) Undina - 2025-07-03
astro.vanbuitenen.nl


 
-1 year
-1 month
-1 day
Now
+1 day
+1 month
+1 year

The interactive orbit chart above shows the body's path through the solar system and its position at the given date. Green and blue lines are shown perpendicular to the ecliptic plane: Green if the path is above the ecliptic plane, blue if it is below. (Left-click and drag to rotate the view; Right-click and drag to move the view; Use scroll wheel to zoom in our out.)

The orbital elements of Undina are:

            e (Eccentricity)                : 0.1049890
            a (Semimajor axis)              : 3.1848901
            i (Inclination)                 : 9.92326
            Ω (Longitude of ascending node) : 101.39358
            ω (Argument of perihelion)      : 236.76974
            M (Mean anomaly)                : 203.39112
            Epoch                           : 2025 May 05

            L (Longitude of perihelion)     : 157.76625
            B (Latitude of perihelion)      : -8.28800
            P (Orbital period in years)     : 5.68            
        

The light curve chart below shows the estimated development of the minor planet's magnitude.


The all-sky chart below shows the path of the minor planet over the same period as the light curve. The current position is marked yellow.





The following chart shows the path of the minor planet in the next few days. The field of view is optimized for (~10x50) binoculars and finderscopes. A more printer-friendly version of the same chart can be found below.




Ephemerides:
Date       Time       RA (2000)    DEC (2000)    delta   radius  elong  phase   PA    magn
2025-07-03 00:00 UT   11 36 43.5   +12 35 40     3.706    3.473   68.9   15.9   110   13.1 
2025-07-03 06:01 UT   11 36 55.4   +12 33 53     3.709    3.473   68.8   15.8   110   13.1 
2025-07-04 00:00 UT   11 37 31.1   +12 28 34     3.719    3.472   68.2   15.8   110   13.1 
2025-07-05 00:00 UT   11 38 19.3   +12 21 25     3.731    3.472   67.5   15.7   110   13.1 
2025-07-06 00:00 UT   11 39 08.0   +12 14 14     3.744    3.471   66.8   15.6   110   13.1 
2025-07-07 00:00 UT   11 39 57.2   +12 07 01     3.756    3.471   66.1   15.5   110   13.1 
2025-07-08 00:00 UT   11 40 47.0   +11 59 45     3.769    3.470   65.4   15.4   109   13.1 
2025-07-09 00:00 UT   11 41 37.3   +11 52 27     3.781    3.470   64.7   15.4   109   13.1 
2025-07-10 00:00 UT   11 42 28.0   +11 45 07     3.793    3.469   64.0   15.3   109   13.1 
2025-07-11 00:00 UT   11 43 19.3   +11 37 45     3.805    3.469   63.3   15.2   109   13.2 
2025-07-12 00:00 UT   11 44 11.1   +11 30 20     3.817    3.468   62.6   15.1   109   13.2 
2025-07-13 00:00 UT   11 45 03.4   +11 22 53     3.829    3.468   61.9   15.0   109   13.2 
2025-07-14 00:00 UT   11 45 56.1   +11 15 25     3.841    3.467   61.2   14.9   109   13.2 
2025-07-15 00:00 UT   11 46 49.3   +11 07 54     3.853    3.467   60.5   14.8   109   13.2 
2025-07-16 00:00 UT   11 47 43.0   +11 00 21     3.865    3.466   59.8   14.7   108   13.2 
2025-07-17 00:00 UT   11 48 37.1   +10 52 47     3.876    3.466   59.1   14.6   108   13.2 
2025-07-18 00:00 UT   11 49 31.7   +10 45 10     3.888    3.465   58.4   14.5   108   13.2 
2025-07-19 00:00 UT   11 50 26.7   +10 37 31     3.899    3.465   57.7   14.4   108   13.2 
2025-07-20 00:00 UT   11 51 22.2   +10 29 51     3.910    3.464   57.1   14.2   108   13.2 
2025-07-21 00:00 UT   11 52 18.1   +10 22 09     3.922    3.464   56.4   14.1   108   13.2 
2025-07-22 00:00 UT   11 53 14.5   +10 14 25     3.933    3.463   55.7   14.0   108   13.2 
2025-07-23 00:00 UT   11 54 11.2   +10 06 39     3.944    3.463   55.0   13.9   108   13.2 
2025-07-24 00:00 UT   11 55 08.4   +09 58 52     3.955    3.462   54.3   13.8   107   13.2 
2025-07-25 00:00 UT   11 56 06.0   +09 51 03     3.966    3.462   53.7   13.7   107   13.2 
2025-07-26 00:00 UT   11 57 04.0   +09 43 13     3.976    3.461   53.0   13.6   107   13.2 
2025-07-27 00:00 UT   11 58 02.4   +09 35 20     3.987    3.461   52.3   13.4   107   13.2 
2025-07-28 00:00 UT   11 59 01.1   +09 27 27     3.997    3.460   51.7   13.3   107   13.2 
2025-07-29 00:00 UT   12 00 00.3   +09 19 32     4.008    3.460   51.0   13.2   107   13.2 
2025-07-30 00:00 UT   12 00 59.8   +09 11 36     4.018    3.459   50.3   13.1   107   13.2 
2025-07-31 00:00 UT   12 01 59.7   +09 03 38     4.028    3.459   49.7   12.9   106   13.2 
2025-08-01 00:00 UT   12 02 59.9   +08 55 39     4.038    3.458   49.0   12.8   106   13.2 
2025-08-02 00:00 UT   12 04 00.5   +08 47 39     4.048    3.458   48.3   12.7   106   13.2 


    Terminology:
            
    delta:  distance between minor planet and earth in AU
    radius: distance between minor planet and sun in AU
    magn:   magnitude (brightness) estimate    
    ra:     right ascension in hours (24h = 360deg)
    dec:    declination in degrees
    elong:  elongation in degrees (angle sun-earth-minor planet)    
    phase:  phase angle in degrees (angle sun-minor planet-earth)        
    AU:     Astronomical Unit (mean distance between earth and sun: 149597870.7 km
    

Orbital elements provided by the MPC (Minor Planet Center).
Calculations by a modified version of AAPlus, a C# implementation of the AA+ project by PJ Naughter from the algorithms presented in the book "Astronomical Algorithms" by Jean Meeus.
NGC2000 dso catalog and star labels from VizieR as provided by the Strasbourg astronomical Data Center.
Tycho2 catalog from the ESO archive.